{"data":{"norad_id":53182,"intl_designator":"2022-083BC","name":"STARLINK-4278","alt_names":[],"object_type":"PAYLOAD","status":"ACTIVE","operator":null,"country":"US","launch_date":"2022-07-17","launch_site_code":"AFETR","launch_vehicle":null,"mission":null,"orbit_class":"UNKNOWN","rcs_meters":null,"size_class":null,"mass_kg":null,"dimensions":null,"purposes":["comms"],"wikipedia_slug":null,"has_3d_model":false,"image_url":null,"decayed_at":null,"tle_current":{"epoch":"2026-09-20T00:00:02.998944Z","epoch_age_seconds":115447,"freshness":"FRESH","line1":"1 53182U 22083BC  26263.00003471  .00034011  00000+0  10138-2 0  9991","line2":"2 53182  53.1586 331.7400 0001159  86.7241 102.1044 15.34380814  5892","mean_motion":15.34380814,"eccentricity":0.0001159,"inclination_deg":53.1586,"raan_deg":331.74,"arg_perigee_deg":86.7241,"mean_anomaly_deg":102.1044,"bstar":0.0010138,"rev_number":589,"period_min":93.848931559959,"perigee_km":461.96740564349,"apogee_km":463.55312562966,"semimajor_km":6840.8972656366,"source":"CELESTRAK","updated_at":"2026-09-20T09:00:40.187981Z"}}}